Regional Weather Roundup
Issued by NWS Cleveland, OH

Home | Current Version | Previous Version | Graphics & Text | Print | Product List | Glossary On
Versions: 1 2 3 4 5 6 7 8 9 10 11 12 13 14 15 16 17 18 19 20 21 22 23 24 25 26 27 28 29 30 31 32 33 34 35 36 37 38 39 40 41 42 43 44 45 46 47 48 49 50
291
ASUS41 KCLE 280212
RWRCLE
OHIO REGIONAL WEATHER ROUNDUP
NATIONAL WEATHER SERVICE WILMINGTON, OH
1000 PM EDT SAT MAY 27 2017

NOTE: "FAIR" INDICATES FEW OR NO CLOUDS BELOW 12,000 FEET WITH NO
SIGNIFICANT WEATHER AND/OR OBSTRUCTIONS TO VISIBILITY.

OHZ001>008-015>018-024>027-034-035-043-044-280300-
   NORTHWEST OHIO

CITY           SKY/WX    TMP DP  RH WIND       PRES   REMARKS
DEFIANCE       MOCLDY    65  55  70 E5        29.88F
FINDLAY        MOCLDY    67  53  61 E9        29.87S
TOLEDO EXPRESS CLOUDY    66  54  65 E5        29.89R
TOLEDO EXEC    CLOUDY    66  54  65 E3        29.89R
LIMA           FAIR      66  59  78 NE6       29.88R
$$

OHZ009>014-019>023-028>033-038-089-280300-
   NORTHEAST OHIO

CITY           SKY/WX    TMP DP  RH WIND       PRES   REMARKS
CLE-HOPKINS    MOCLDY    68  51  54 E6        29.90F
CLE-LAKEFRONT  FAIR      66  51  58 E6        29.87F
CUY CO. ARPT   PTCLDY    64  52  63 E6        29.90F
LORAIN-ELYRIA  CLOUDY    64  51  62 NE5       29.89S
ASHTABULA      FAIR      57  55  93 CALM      29.92R
AKRON-CANTON   FAIR      64  56  75 NE10      29.88F
WOOSTER        FAIR      63  57  81 NE6       29.89F
MANSFIELD      MOCLDY    64  56  75 NE6       29.90R
YOUNGSTOWN     MOCLDY    58  51  78 NE5       29.91R
$$

OHZ042-051>053-060>062-070>072-077>081-280300-
  SOUTHWEST OHIO

CITY           SKY/WX    TMP DP  RH WIND       PRES   REMARKS
CINC-COVINGTON CLOUDY    74  68  81 S7        29.83F THUNDER
CINC-LUNKEN    MOCLDY    73  72  96 S3        29.82F
HAMILTON       FAIR      72  68  87 N5        29.82F
DAYTON         CLOUDY    72  65  78 N5        29.86R
WRIGHT-PAT AFB MOCLDY    72  68  88 N3        29.84R
DAYTON GENERAL FAIR      73  64  73 N6        29.83S
WILMINGTON     FAIR      71  68  90 NE5       29.84R
$$

OHZ036-037-039>041-045>050-054>059-063>069-073>076-082>088-280300-
  CENTRAL AND SOUTHEAST OHIO

CITY           SKY/WX    TMP DP  RH WIND       PRES   REMARKS
COLUMBUS       FAIR      72  66  81 E7        29.85R
OSU AIRPORT    FAIR      70  66  87 E5        29.86R
BOLTON FIELD   FAIR      72  65  79 E3        29.86R
RICKENBACK AFB MOCLDY    72  67  84 E5        29.84S
NEWARK         FAIR      70  64  81 CALM      29.86R
MARION         FAIR      67  60  78 N7        29.88R
LANCASTER      MOCLDY    74  65  73 E5        29.86S
ZANESVILLE     FAIR      70  64  81 SE3       29.87S
NEW PHILLY     FAIR      67  64  90 SE5       29.88F
$$




USA.gov is the U.S. government's official web portal to all federal, state and local government web resources and services.